Regional Weather Roundup
Issued by NWS

Home | Current Version | Previous Version | Text Only | Print | Product List | Glossary On
Versions: 1 2 3 4 5 6 7 8 9 10 11 12 13 14 15 16 17 18 19 20 21 22 23 24 25 26 27 28 29 30 31 32 33 34 35 36 37 38 39 40 41 42 43 44 45 46 47 48 49 50
000
ASUS43 KMKX 210200
RWRWI

WISCONSIN REGIONAL WEATHER ROUNDUP
NATIONAL WEATHER SERVICE MILWAUKEE/SULLIVAN WI
900 PM CDT FRI OCT 20 2017

NOTE: "FAIR" INDICATES FEW OR NO CLOUDS BELOW 12,000 FEET WITH NO
SIGNIFICANT WEATHER AND/OR OBSTRUCTIONS TO VISIBILITY.

WIZ001-002-006>008-014>016-023>028-210300-
NORTHWEST WISCONSIN

CITY           SKY/WX    TMP DP  RH WIND       PRES   REMARKS
SUPERIOR ARPT  CLOUDY    67  45  44 S10G17    29.71S
ASHLAND        CLOUDY    69  41  36 S13G23    29.76R
HAYWARD        PTCLDY    67  43  41 S14       29.79R
SIREN          CLOUDY    68  40  36 S12G22    29.75S
CUMBERLAND     PTCLDY    59  43  55 S8        29.79S
RICE LAKE      PTCLDY    65  44  47 SE10      29.81R
CHETEK         PTCLDY    65  46  51 S9G17     29.80S
LADYSMITH      PTCLDY    65  44  46 SE10      29.85R
EAU CLAIRE     NOT AVBL
MENOMONIE      MOCLDY    67  43  41 S14G21    29.80S
NEW RICHMOND   CLOUDY    65  44  45 S17G25    29.76F
OSCEOLA        PTCLDY    66  43  43 S12G18    29.77S
$$

WIZ003>005-009-010-017-018-210300-
NORTH CENTRAL WISCONSIN

CITY           SKY/WX    TMP DP  RH WIND       PRES   REMARKS
MANITOWISH WTR CLOUDY    64  44  46 S12G20    29.85F
ARBOR VITAE    MOCLDY    65  42  41 S9G16     29.87F
WOODRUFF       MOCLDY    65  42  41 S9G16     29.87F
RHINELANDER    CLOUDY    65  43  44 S13G20    29.90F
EAGLE RIVER    MOCLDY    63  41  44 S6        29.89S
LAND O LAKES   PTCLDY    64  42  44 S8        29.90S
PHILLIPS       CLOUDY    64  44  48 S10G21    29.84S
TOMAHAWK       CLOUDY    58  42  54 S3        29.90S
MEDFORD        PTCLDY    60  44  55 SE10      29.88S
MERRILL        CLOUDY    64  44  49 S3        29.90F
$$

WIZ029-030-035-036-043>047-210300-
CENTRAL WISCONSIN

CITY           SKY/WX    TMP DP  RH WIND       PRES   REMARKS
WAUSAU         CLOUDY    62  44  51 S9        29.89F
MOSINEE        PTCLDY    61  45  55 SE8       29.92S
MARSHFIELD     MOCLDY    59  44  57 S9        29.88F
STEVENS POINT  CLOUDY    62  44  51 S5        29.92F
WAUPACA        PTCLDY    61  45  54 S3        29.94S
WAUTOMA        CLOUDY    62  46  55 S7        29.94S
WISC RAPIDS    PTCLDY    65  46  50 S9        29.91F
CAMP DOUGLAS   NOT AVBL
$$

WIZ011>013-019>022-031-037>040-048>050-210300-
NORTHEAST WISCONSIN

CITY           SKY/WX    TMP DP  RH WIND       PRES   REMARKS
ANTIGO         PTCLDY    55  44  68 SE8       29.94S
SHAWANO        CLOUDY    64  46  53 CALM      29.94R
OCONTO         PTCLDY    58  52  83 SE5       29.94S
STURGEON BAY   CLOUDY    59  52  77 S12       29.97S
GREEN BAY      PTCLDY    64  51  62 S8        29.95F
MANITOWOC      NOT AVBL
APPLETON       MOCLDY    63  45  51 S10       29.94
CLINTONVILLE   NOT AVBL
OSHKOSH        CLOUDY    58  49  72 S8        29.95F
$$

WIZ032>034-041-042-053>061-210300-
SOUTHWEST WISCONSIN

CITY           SKY/WX    TMP DP  RH WIND       PRES   REMARKS
LA CROSSE      CLOUDY    68  47  46 S12       29.84F
SPARTA         MOCLDY    68  48  48 S10G16    29.88S
VIROQUA        CLOUDY    67  46  48 S16       29.90S
BOSCOBEL       CLOUDY    70  45  40 S9        29.91S
PRAIRIE DU CHI CLOUDY    70  39  32 SE12G20   29.89S
PLATTEVILLE    CLOUDY    64  48  56 SE10      29.95F
$$

WIZ056-057-062-063-064-067-068-210300-
SOUTH CENTRAL WISCONSIN

CITY           SKY/WX    TMP DP  RH WIND       PRES   REMARKS
REEDSBURG      CLOUDY    67  47  47 S13G20    29.92F
BARABOO/DELLS  CLOUDY    66  46  48 S13G21    29.94S
LONE ROCK      NOT AVBL
MINERAL POINT  CLOUDY    63  46  55 S8        29.95F
MADISON        MOCLDY    64  49  57 S9        29.96F
MIDDLETON      PTCLDY    67  47  49 S8        29.97S
WATERTOWN      PTCLDY    65  50  57 S9        29.98S
MONROE         CLOUDY    64  46  52 S12       29.98S
JANESVILLE     CLOUDY    68  48  49 S10       29.98F
$$

WIZ051-052-058>065-066-070>072-210300-
SOUTHEAST WISCONSIN

CITY           SKY/WX    TMP DP  RH WIND       PRES   REMARKS
MILWAUKEE      CLOUDY    67  51  56 S8        30.01S
WAUKESHA       CLEAR     66  48  52 S7        30.01F
MILWAUKEE/TIMM CLEAR     66  46  48 S10       30.01S
RACINE         PTCLDY    67  51  56 S10       30.03F
BURLINGTON     PTCLDY    64  52  63 S6        30.01F
KENOSHA        MOCLDY    67  49  52 S9        30.02F
FOND DU LAC    CLOUDY    62  47  57 S7        29.96F
SHEBOYGAN      CLOUDY    58  52  80 S7        29.99S
WEST BEND      PTCLDY    64  46  52 S6        30.00S
JUNEAU         CLOUDY    63  49  59 SE10      29.98F
$$

LSZ147-162-210300-
LAKE SUPERIOR

STATION/POSITION TIME  TEMP    WIND        PRES    WAVE
                       AIR SEA DIR/SP/G            HT/PER
                 (UTC) (F)     (DEG/KT/KT) (MB)    (FT/S)
W MID LAKE BUOY  0050   61 53              1007.5S   1
DEVILS ISLAND    0100   70     180/  9/ 12 1006.8F
SAXON HARBOR     0140   73     180/ 10/ 19 1006.8F
$$

LMZ867-665-643>646-210300-
LAKE MICHIGAN

STATION/POSITION TIME  TEMP    WIND        PRES    WAVE
                       AIR SEA DIR/SP/G            HT/PER
                 (UTC) (F)     (DEG/KT/KT) (MB)    (FT/S)
S GREEN BAY BUOY 0100   62 58  170/ 10/ 10 1014.1
N MID LAKE BUOY  0050   61 58  190/ 17/ 21 1015.4R   5/ 6
NORTHPORT PIER   0140   60     160/  7/ 13 1014.6S
KEWAUNEE LAKESHO 0130   56     180/ 11/ 12 1014.4S
SHEBOYGAN LAKESH 0100   61     180/ 17/ 18 1015.5F
PORT WASHINGTON  0130   56     180/  4/  6 1016.9S
ATWATER BUOY     0009   57 53  180/  8/ 10 1016.4R
MILWAUKEE LAKESH 0130   63     200/ 11/ 12   N/A
S MID LAKE BUOY  0050   65 61  160/ 14/ 16 1017.5F   1/ 3
KENOSHA   LAKESH 0100   59     170/ 11/ 12 1016.6
$$

TC  - TEMPERATURE IN CELSIUS
VSB - VISIBILITY IN STATUTE MILES
WCI - WIND CHILL INDEX
HX  - HEAT INDEX




USA.gov is the U.S. government's official web portal to all federal, state and local government web resources and services.